Weather History for KSNY - October, 2013

Change the Weather History Date:

Monday, October 21, 2013

  Actual Average Record
Temperature  
Mean Temperature 45 °F 48 °F  
Max Temperature 59 °F 63 °F 84 °F (2003)
Min Temperature 31 °F 34 °F 17 °F (1987)
Degree Days  
Heating Degree Days 20 17  
Month to date heating degree days 364 278  
Since 1 July heating degree days 468 418  
Cooling Degree Days 0 0  
Month to date cooling degree days 0 1  
Year to date cooling degree days 918 827  
Moisture  
Dew Point 32 °F    
Average Humidity 64    
Maximum Humidity 92    
Minimum Humidity 36    
Precipitation  
Precipitation 0.00 in 0.03 in 1.74 in (1953)
Month to date precipitation 1.23 0.79  
Year to date precipitation 16.45 17.20  
Sea Level Pressure  
Sea Level Pressure 30.10 in    
Wind  
Wind Speed 13 mph (WNW)    
Max Wind Speed 30 mph    
Max Gust Speed 36 mph    
Visibility 10 miles    
Events      
T = Trace of Precipitation, MM = Missing Value Source: NWS Daily Summary

Daily Weather History Graph

Daily Weather History Graph

Search for Another Location

Airport or City:

Trip Planner

Search our weather history database for the weather conditions in past years. The results will help you decide how hot, cold, wet, or windy it might be!

Date:

Astronomy

Oct. 21, 2013 Rise Set
Actual Time 7:10 AM MDT 6:01 PM MDT
Civil Twilight 6:42 AM MDT 6:29 PM MDT
Nautical Twilight 6:10 AM MDT 7:01 PM MDT
Astronomical Twilight 5:38 AM MDT 7:33 PM MDT
Moon 7:55 PM MDT (10/21) 9:48 AM MDT (10/21)
Length of Visible Light 11h 47m
Length of Day
10h 51m
Waning Gibbous, 92% of the Moon is Illuminated
Oct 21
Waning Gibbous
Oct 26
Last Quarter
Nov 3
New
Nov 9
First Quarter
Nov 17
Full

Hourly Weather History & Observations

Time (MDT) Temp. Windchill Dew Point Humidity Pressure Visibility Wind Dir Wind Speed Gust Speed Precip Events Conditions
12:53 AM 34.0 °F 27.2 °F 30.9 °F 89% 30.12 in 10.0 mi West 8.1 mph - N/A   Clear
1:53 AM 33.1 °F 24.9 °F 30.0 °F 89% 30.12 in 10.0 mi WNW 10.4 mph - N/A   Clear
2:53 AM 34.0 °F 26.0 °F 30.0 °F 85% 30.12 in 10.0 mi West 10.4 mph - N/A   Clear
3:53 AM 33.1 °F 23.9 °F 28.9 °F 85% 30.12 in 10.0 mi WNW 12.7 mph - N/A   Clear
4:53 AM 32.0 °F 25.6 °F 28.0 °F 85% 30.12 in 10.0 mi West 6.9 mph - N/A   Clear
5:53 AM 30.9 °F 22.8 °F 28.0 °F 89% 30.15 in 10.0 mi WNW 9.2 mph - N/A   Partly Cloudy
6:53 AM 30.9 °F 22.8 °F 28.0 °F 89% 30.15 in 10.0 mi WNW 9.2 mph - N/A   Mostly Cloudy
7:53 AM 35.1 °F 27.4 °F 30.9 °F 85% 30.16 in 10.0 mi West 10.4 mph - N/A   Overcast
8:53 AM 39.9 °F 32.9 °F 32.0 °F 73% 30.15 in 10.0 mi WNW 11.5 mph - N/A   Overcast
9:53 AM 44.1 °F 37.4 °F 33.1 °F 65% 30.14 in 10.0 mi West 13.8 mph - N/A   Overcast
10:53 AM 48.0 °F - 33.1 °F 56% 30.13 in 10.0 mi WNW 11.5 mph - N/A   Overcast
11:53 AM 53.1 °F - 32.0 °F 45% 30.10 in 10.0 mi NW 20.7 mph 24.2 mph N/A   Overcast
12:53 PM 53.1 °F - 30.9 °F 43% 30.09 in 10.0 mi NW 20.7 mph 26.5 mph N/A   Overcast
1:53 PM 55.9 °F - 30.9 °F 39% 30.05 in 10.0 mi NW 23.0 mph 33.4 mph N/A   Overcast
2:53 PM 57.9 °F - 30.9 °F 36% 30.04 in 10.0 mi NW 25.3 mph 35.7 mph N/A   Overcast
3:53 PM 55.9 °F - 32.0 °F 40% 30.04 in 10.0 mi NNW 18.4 mph 31.1 mph N/A   Partly Cloudy
4:53 PM 52.0 °F - 34.0 °F 50% 30.06 in 10.0 mi North 12.7 mph - N/A   Partly Cloudy
5:53 PM 48.0 °F - 34.0 °F 58% 30.07 in 10.0 mi NNW 4.6 mph - N/A   Mostly Cloudy
6:53 PM 43.0 °F 41.3 °F 34.0 °F 71% 30.09 in 10.0 mi WSW 3.5 mph - N/A   Overcast
7:53 PM 44.1 °F 39.5 °F 36.0 °F 73% 30.07 in 10.0 mi WSW 8.1 mph - N/A   Scattered Clouds
8:53 PM 46.9 °F - 35.1 °F 63% 30.06 in 10.0 mi West 9.2 mph - N/A   Overcast
9:53 PM 46.9 °F - 35.1 °F 63% 30.06 in 10.0 mi West 11.5 mph - N/A   Overcast
10:53 PM 50.0 °F - 34.0 °F 54% 30.05 in 10.0 mi WNW 13.8 mph - N/A   Overcast
11:53 PM 46.9 °F - 35.1 °F 63% 30.05 in 10.0 mi WNW 11.5 mph - N/A   Scattered Clouds